星链-32344 (STARLINK-32344)

导读

STARLINK-32344是美国SpaceX星链计划中的卫星,于2024年10月30日发射升空,属于低轨互联网星座卫星,主要用于为全球提供高速宽带互联网服务,尤其服务偏远地区和网络基础设施薄弱区域,进一步扩充了星链星座的组网规模,推动全球卫星互联网覆盖能力提升。

Basic Information
目录编号:
61719
目录名称:
STARLINK-32344
国际标识:
2024-196N
轨道中心:
EARTH
卫星名称:
星链-32344
卫星全名:
星链-32344 (STARLINK-32344)
卫星状态:
在轨 (已飞行681 天)
发射日期:
2024-10-30 UTC
国别 :
美国 (US)
星等 :
--
This satellite is enrolled in the Space Conjunction Data Service (SCDS) and the current flight risk assessment level is: No High Risk
Orbit Information
数据来源 国际轨道数据 AOE轨道数据
星历时间 2026-09-11T19:16:48+0800
9小时前
查看轨道信息
2026-09-07T05:00:00+0800
5天前
查看轨道信息
半长轴 6840.862km 6840.859km
偏心率 0.000103 0.0001512
轨道倾角 53.160° 53.161°
近地点辐角 98.755° 70.229°
升交点赤经 316.053° 337.536°
平近点角 261.356° 93.797°
近地点 462.02km 461.687km
远地点 463.43km 463.757km
周期 93.848分钟 93.848分钟
每日圈数 15.343928 15.34394
Detailed Information
固有亮度:
5
最大亮度:
2.5
卫星平台:
Starlink V1.0
覆盖范围:
全球
运营商:
太空探索技术公司
运营商所在国:
美国
制造商(研发单位):
太空探索技术公司
制造商所在国:
美国
使用方式:
暂无
Satellite Introduction
Starlink 计划是 SpaceX 推出的全球卫星互联网项目,通过发射低轨道卫星,为全球尤其是偏远地区提供高速、低延迟的互联网服务。自 2019 年起,Starlink 已部署数千颗卫星,旨在缩小全球数字鸿沟,推动互联网普及。该项目还为军事、航空等行业提供通信支持,带来广泛经济效益。
2D Orbit Map
3D Orbit Map
Orbit Altitude Analysis Chart
Orbit Inclination Analysis Chart
Orbit Comprehensive Analysis Chart
View Comprehensive Chart
Conjunction Data List
Event ID Objects TCA Miss Dist (km) Collision Risk Probability Collision Risk Index (CRI) Action
CDM_260912-153706-171906-462721
OBJECT C (64627)
2026-09-12T
15:37:42+0000
0.692 km
远距离
5.534278E-5 中风险 0.7
CDM_260914-045006-171906-915421
2026-09-14T
04:50:20+0000
1.724 km
极远距离
3.740053E-6 低风险 0.46
CDM_260913-212905-912506-171921
2026-09-13T
21:29:57+0000
1.881 km
极远距离
2.884297E-6 低风险 0.44
CDM_260910-010605-390006-171921
2026-09-10T
01:06:06+0000
2.180 km
极远距离
1.830384E-6 低风险 0.4
CDM_260912-033705-020006-171921
2026-09-12T
03:37:21+0000
2.805 km
极远距离
1.297357E-6 低风险 0.37
CDM_260908-043405-180906-171921
2026-09-08T
04:34:00+0000
2.595 km
极远距离
1.268373E-6 低风险 0.37
CDM_260909-224505-390006-171921
2026-09-09T
22:45:23+0000
2.986 km
极远距离
1.079342E-6 低风险 0.36
CDM_260914-043906-171906-807621
2026-09-14T
04:39:16+0000
2.861 km
极远距离
9.669594E-7 极低风险 0.35
Miss Distance Evolution Trend with All Objects
Collision Probability Evolution Trend with All Objects